Wind_Speed
6 4 3 7 7 8 10 11 9 5 6 5 5 4 4 5 6 3 2 5 1 2 5 5 6 8 11 8 3 4 4 6 7 7 6 5 5 5 4 4 4 3 4 5 4 3 3 4 5 5 5 5 4 5 6 6 7 8 8 8 10 12 11 9 9 8 6 6 5 3 3 3 4 3 1 1 1 2 4 5 6 8 8 7 7 6
5 5 10 11 7 8 9 8 5 3 5 3 3 3 3 4 6 4 2 5 1 2 5 2 3 9 11 5 4 3 4 4 5 8 7 8 7 6 6 6 5 5 4 3 3 4 5 6 6 6 5 6 7 9 10 11 12 12 12 12 13 13 10 10 9 8 7 7 6 5 5 5 3 2 1 2 1 2 5 6 7 7 8 10 11 11
2 6 13 8 5 5 1 4 6 5 4 2 2 1 4 3 4 6 3 4 2 2 4 3 2 9 9 1 5 4 4 4 4 7 8 9 9 8 8 7 7 7 7 6 6 8 9 9 10 10 11 12 14 16 16 17 17 17 18 18 18 17 16 16 14 13 14 13 12 10 9 8 6 6 6 5 5 4 5 6 7 7 7 8 9 9
3 7 11 6 8 7 2 3 6 4 3 3 3 2 5 3 0 4 4 4 2 1 2 1 1 8 7 1 5 5 6 8 6 7 8 8 9 9 9 8 9 9 10 11 12 13 14 15 16 18 19 20 21 22 22 22 21 22 22 22 21 21 21 21 20 19 19 18 16 15 13 11 11 12 11 9 8 7 7 7 8 8 8 8 9 8
6 6 3 7 7 7 4 3 6 5 3 3 5 6 5 4 5 6 4 4 2 3 1 1 2 6 5 2 0 3 6 8 8 8 8 8 8 9 9 10 10 12 14 15 17 18 20 21 22 23 24 24 24 25 25 25 24 24 24 24 23 23 23 23 22 21 20 19 18 17 15 14 13 13 11 10 10 9 8 8 9 10 10 9 9 8
7 5 4 6 3 5 6 4 5 7 3 3 5 10 10 7 7 5 2 4 3 4 2 1 1 5 5 4 4 3 3 4 4 6 7 8 8 9 10 11 12 14 17 19 21 22 23 24 25 25 25 25 25 25 25 24 24 24 24 23 23 23 23 23 22 21 19 19 18 17 16 14 12 12 12 12 13 11 10 10 10 10 9 8 8 8
5 4 3 5 4 6 5 4 6 7 5 2 5 8 9 7 5 4 2 2 1 3 2 2 2 4 6 5 3 4 3 2 2 3 5 7 8 10 11 12 14 16 19 21 23 24 25 25 25 25 25 24 25 24 23 22 22 22 22 22 21 22 22 22 21 19 18 17 17 16 15 14 13 13 14 15 14 13 13 11 10 9 9 8 8 8
4 3 2 4 5 5 4 5 6 8 7 3 4 5 6 7 7 6 6 4 3 3 3 2 2 3 4 5 2 4 3 1 1 2 3 7 9 10 12 13 16 18 20 22 24 25 25 25 24 24 23 23 23 22 21 20 20 20 20 20 20 20 21 20 19 18 17 17 16 16 15 14 15 15 15 14 13 13 12 10 9 10 9 9 9 8
3 4 5 7 4 4 5 4 7 10 5 4 2 6 6 6 6 5 6 4 1 1 4 4 1 2 5 4 1 4 3 6 5 6 6 9 11 12 14 15 17 19 21 23 25 25 25 24 23 23 22 22 21 20 19 19 19 19 18 18 18 19 20 19 17 16 17 17 16 16 15 15 16 15 14 12 11 11 10 9 9 9 9 10 10 10
1 3 5 7 5 5 4 1 6 9 3 3 6 7 5 5 5 4 5 3 2 1 5 6 4 3 5 5 2 2 4 7 6 6 7 11 13 14 15 17 18 20 22 23 24 25 24 23 22 21 21 20 19 19 18 18 18 18 17 16 16 18 18 17 16 15 17 16 15 16 15 15 15 14 12 10 9 9 8 8 8 8 9 10 10 10
1 1 1 4 4 5 5 3 2 4 4 7 7 6 6 6 5 3 2 4 2 2 6 7 5 4 4 5 4 4 4 4 5 4 6 10 14 16 17 18 20 20 22 23 24 24 23 22 21 20 19 19 18 17 16 16 16 16 15 14 15 17 16 15 15 14 15 15 14 15 14 13 14 12 9 8 8 8 7 8 8 8 9 9 9 10
3 0 2 3 5 5 7 4 2 3 5 7 4 4 4 3 3 4 4 3 0 5 5 4 2 3 4 5 4 5 4 4 5 5 8 12 17 19 20 20 21 21 22 23 23 23 22 21 20 18 17 17 17 15 14 14 15 14 13 12 13 15 14 13 13 12 13 13 12 13 12 10 11 9 7 7 8 7 7 8 8 7 7 7 7 8
3 4 3 1 4 6 6 4 3 3 3 4 4 6 4 2 2 2 3 0 3 6 4 3 2 2 5 6 5 5 4 3 3 5 10 17 21 23 23 22 22 22 22 23 23 22 21 19 18 17 16 16 15 13 12 12 12 13 12 10 11 12 12 11 11 10 10 10 10 10 9 8 7 7 6 7 7 7 7 7 7 7 7 7 8 9
3 5 1 2 3 8 8 5 2 1 2 4 5 6 4 2 1 2 3 2 4 4 2 3 2 2 4 4 4 4 2 3 6 8 11 20 25 26 26 24 23 23 23 23 23 22 20 19 17 15 14 14 13 12 11 11 11 11 11 9 8 10 10 9 8 8 8 8 8 7 7 6 5 5 6 6 7 7 7 8 8 9 10 10 11 11
3 4 4 5 3 8 10 6 6 6 4 3 3 5 4 4 4 4 4 3 4 3 2 2 1 3 3 2 3 4 3 4 5 7 10 18 25 27 27 25 25 25 25 25 24 22 20 18 16 15 14 13 12 11 10 9 9 9 8 7 6 8 8 7 6 6 5 6 7 5 5 5 4 4 5 5 6 7 8 9 10 10 12 12 13 14
3 5 6 3 1 8 9 4 6 7 3 2 2 4 2 4 4 2 2 5 3 2 3 2 3 4 3 1 3 3 3 4 3 3 12 18 23 27 27 27 27 27 27 26 24 23 20 18 17 15 14 13 11 10 9 8 8 7 6 6 5 5 5 4 4 4 4 5 5 3 3 3 3 3 4 4 6 6 7 8 9 10 11 12 13 13
2 5 5 2 2 3 4 3 4 4 3 2 2 3 4 4 6 4 1 1 4 1 4 2 3 4 1 1 2 2 3 3 3 4 13 18 23 26 28 29 29 29 29 28 25 23 21 19 18 16 14 13 11 10 9 8 7 6 5 4 3 3 3 3 2 2 2 2 2 1 1 2 2 2 3 4 5 6 7 8 9 10 11 12 13 13
4 3 4 1 1 2 1 4 5 4 4 5 3 5 3 2 4 3 1 3 3 2 4 1 3 4 1 2 2 2 2 4 2 4 9 15 20 24 28 31 31 31 30 28 26 24 22 21 19 17 15 13 12 10 9 8 7 6 5 4 4 3 3 3 3 2 2 2 2 2 2 2 3 3 4 4 5 6 7 8 9 10 11 11 13 14
4 1 5 1 2 2 2 4 4 5 3 4 3 3 3 3 2 2 2 2 1 3 4 2 3 3 4 4 2 4 8 8 6 5 6 11 19 24 29 32 32 31 31 30 29 27 25 22 20 18 16 14 13 11 10 9 7 6 6 6 5 5 5 5 5 4 4 4 4 4 4 4 4 4 4 4 4 5 6 7 9 10 11 12 13 14
3 2 4 2 1 1 2 2 3 2 1 3 2 1 1 2 3 3 3 3 3 2 4 4 4 3 5 5 7 10 11 10 9 7 8 13 22 29 33 35 35 34 34 33 31 29 26 23 21 19 17 15 13 12 11 10 9 8 8 8 7 8 8 7 7 6 6 6 5 5 5 5 4 4 4 4 5 6 7 9 11 12 14 15 16 17
3 2 3 2 2 2 2 2 6 6 4 2 3 3 1 1 2 1 1 2 3 3 2 4 6 6 3 3 6 7 6 8 11 10 10 18 27 32 34 35 36 36 36 34 32 29 27 24 22 20 18 16 15 14 12 11 10 10 9 10 10 10 10 9 8 8 7 6 6 6 5 4 4 4 4 5 6 8 9 10 12 13 15 16 17 18
3 3 3 1 0 3 4 4 3 5 4 4 5 6 6 4 3 1 3 2 3 3 3 4 7 7 3 1 2 3 4 6 11 10 12 20 28 29 29 31 34 36 35 33 31 29 27 26 24 22 20 19 17 15 14 13 12 12 11 12 12 12 11 10 9 8 8 7 6 6 5 5 5 5 6 7 8 9 11 13 15 17 19 20 22 23
3 3 3 2 3 4 5 4 3 5 2 2 3 3 5 5 5 4 6 3 2 1 1 3 3 5 1 1 1 4 5 6 12 13 13 18 22 23 25 28 32 34 34 31 30 29 28 27 25 23 22 21 18 16 15 14 14 13 13 14 13 12 12 11 10 9 8 7 7 6 5 5 6 7 9 10 12 14 16 18 20 22 24 25 26 27
3 2 3 1 3 2 4 4 2 2 1 1 3 1 4 4 2 2 3 2 2 3 1 2 4 4 2 1 1 2 2 5 12 15 13 15 19 21 24 27 31 33 32 31 30 30 29 27 26 25 24 22 20 18 17 16 15 15 15 15 14 13 13 11 10 9 8 7 6 6 6 7 9 11 13 14 16 18 20 22 23 25 26 27 29 30
6 2 3 2 2 3 2 2 2 2 1 3 3 2 4 3 5 3 2 2 1 4 4 2 5 4 2 2 3 4 3 5 9 13 12 12 16 19 22 25 29 32 32 32 32 31 30 29 28 28 27 24 21 19 18 16 15 16 16 16 15 14 12 10 9 8 8 8 8 9 9 10 11 13 15 17 19 21 22 24 25 27 28 29 30 31
7 2 4 6 6 7 5 3 4 3 2 2 2 3 4 5 6 3 1 2 4 4 6 5 7 3 2 3 3 4 2 4 7 10 11 10 12 17 20 23 27 30 32 34 33 32 31 30 31 30 29 26 23 20 17 16 15 16 16 16 15 14 12 10 10 9 9 9 10 10 11 12 13 14 16 19 21 23 24 26 27 28 30 31 32 33
4 0 5 7 8 8 5 3 2 2 4 3 3 4 5 5 6 4 2 4 4 3 5 8 5 2 2 3 2 2 2 4 5 8 12 11 11 14 16 19 23 27 31 34 34 33 32 32 33 33 30 27 24 20 17 15 15 15 15 16 15 14 12 11 11 10 10 11 11 12 13 14 15 17 19 21 23 25 27 28 29 31 32 34 35 35
3 2 5 5 7 6 4 3 2 2 3 4 4 6 7 6 7 7 7 7 4 3 8 8 5 4 6 6 6 5 6 5 5 10 15 14 11 11 10 12 15 19 24 28 30 33 35 36 35 33 30 27 24 21 18 16 16 15 15 16 15 14 13 12 11 11 11 12 13 14 15 15 17 19 21 23 25 27 29 30 31 33 35 37 37 37
3 3 4 4 6 9 5 4 5 5 4 6 8 11 13 12 12 13 13 10 8 8 10 4 7 8 8 6 8 10 10 8 10 15 15 12 10 10 8 9 12 14 18 23 26 31 35 38 36 32 29 26 23 21 19 17 17 17 16 17 16 15 14 13 13 12 12 13 15 16 16 18 19 21 23 25 27 29 30 32 33 35 37 38 38 37
3 3 3 5 6 9 7 4 5 7 7 7 11 15 15 14 13 13 14 11 9 9 8 1 5 9 7 6 8 10 9 9 11 13 12 11 12 12 12 15 18 20 22 24 26 28 31 33 33 30 28 25 23 21 20 19 18 18 17 16 16 15 15 15 15 14 15 16 17 17 18 20 21 23 25 26 28 30 32 34 35 37 38 38 37 36
3 2 2 4 4 6 4 4 5 7 8 8 14 15 9 6 7 10 10 6 4 6 8 5 7 11 6 7 8 8 9 10 12 15 15 15 16 17 19 21 22 21 21 22 22 23 23 25 25 26 26 25 22 20 19 19 18 17 16 16 16 16 16 16 16 17 17 18 19 19 20 21 23 24 25 27 28 31 33 35 36 37 38 37 36 34
3 1 2 3 4 4 2 3 5 4 2 8 17 14 7 7 7 7 6 6 7 9 8 7 9 10 3 7 7 9 12 12 15 18 20 21 21 21 21 21 19 19 17 16 15 14 14 16 18 20 23 23 20 19 18 18 17 17 17 16 16 16 17 18 19 19 20 20 21 21 22 23 24 24 25 27 29 31 33 35 36 37 37 36 34 34
4 4 2 3 4 2 1 2 4 3 1 9 14 11 13 13 9 3 3 7 11 10 7 7 9 6 3 6 5 7 9 11 15 19 21 22 21 19 19 18 16 15 13 12 11 10 10 11 13 15 18 19 18 17 16 17 17 18 17 16 16 17 19 20 21 21 22 22 23 23 23 23 23 24 25 27 29 32 33 35 36 36 35 34 34 34
5 5 4 3 3 1 2 3 4 4 6 7 5 5 14 17 14 10 9 10 10 7 5 4 3 1 3 5 7 9 10 10 15 18 18 17 16 16 16 15 14 14 13 12 11 11 11 11 12 13 14 15 16 16 16 17 17 18 18 17 19 20 21 22 23 24 24 24 24 23 22 22 23 24 26 28 30 32 33 35 35 35 35 34 35 36
6 5 3 2 2 1 2 3 4 7 7 4 4 2 4 8 10 10 9 7 7 8 6 4 3 3 7 12 15 15 15 14 14 16 15 13 13 14 13 14 15 17 16 14 13 13 14 14 14 14 15 16 17 18 19 19 19 19 20 21 22 22 23 24 24 24 24 23 22 21 21 22 23 25 27 29 31 33 34 35 35 35 35 35 36 37
7 6 2 2 2 2 2 5 6 4 2 2 4 5 3 4 4 2 4 7 8 9 8 7 7 10 14 18 17 14 14 13 14 16 15 12 12 13 13 15 17 17 15 14 13 13 13 13 13 13 14 15 17 18 19 19 20 21 22 23 23 23 23 22 22 22 22 21 21 20 21 23 25 27 29 30 32 33 34 35 35 35 35 36 37 37
5 6 3 3 4 3 3 6 4 4 3 3 2 2 3 5 5 5 3 7 7 8 9 8 9 13 15 14 12 9 8 7 10 15 16 13 12 13 13 14 15 15 14 12 12 11 10 11 11 12 13 14 15 17 18 19 21 22 22 22 21 21 21 21 22 22 22 21 21 21 23 24 26 28 30 31 33 34 35 35 35 35 35 37 37 37
2 4 4 5 4 3 4 4 2 2 6 5 4 4 4 7 8 7 3 6 5 7 15 14 11 12 10 6 6 5 3 1 5 12 16 14 13 14 14 14 14 14 13 12 11 11 10 11 11 11 12 13 14 16 17 18 19 20 20 20 20 21 22 23 23 23 23 23 22 23 24 26 28 29 31 32 33 34 35 35 35 35 36 37 37 36
2 1 2 2 2 2 3 4 4 5 5 2 2 1 3 10 12 9 2 6 5 9 19 16 10 10 9 10 11 9 5 2 5 12 14 12 12 14 14 14 14 14 14 13 12 11 10 10 11 11 13 15 16 17 18 18 18 19 19 20 21 22 23 24 24 25 25 24 24 25 26 27 29 31 31 32 33 34 35 34 34 35 36 36 36 35
2 1 1 3 3 3 4 3 3 4 3 1 3 3 7 13 14 9 2 8 5 11 19 17 12 13 13 14 14 10 6 7 8 11 10 6 8 11 11 12 13 14 14 14 13 12 11 11 11 12 14 15 17 17 18 18 18 19 20 21 22 23 24 25 26 26 26 26 26 26 28 29 30 31 31 32 33 34 34 34 34 35 35 35 34 34
1 0 1 3 4 5 6 4 2 3 3 3 4 10 14 12 8 3 5 6 8 13 17 17 16 16 16 17 18 13 13 15 14 13 7 4 6 9 10 12 13 14 15 15 14 13 12 11 11 13 14 15 17 18 18 18 19 20 20 22 23 24 25 26 27 28 28 28 27 28 29 30 30 31 31 31 33 34 34 33 34 35 35 34 33 34
2 1 1 2 2 3 4 3 3 5 4 7 8 12 15 9 1 4 5 8 14 16 17 19 17 15 17 20 21 19 18 17 16 15 10 8 9 11 12 14 15 16 18 18 17 15 13 12 14 14 15 16 18 19 19 20 20 20 21 23 24 25 26 27 28 29 29 29 28 28 29 30 30 31 31 31 33 33 33 33 34 34 33 33 33 33
4 3 2 3 3 2 1 3 4 6 4 17 16 6 5 5 4 6 9 12 15 15 16 20 18 15 17 20 21 21 20 17 15 15 14 12 13 14 16 18 18 19 20 20 20 18 15 15 16 16 16 17 18 20 21 21 21 21 22 23 24 26 28 29 29 30 30 29 29 29 29 30 30 30 31 32 32 33 33 33 33 33 32 32 32 33
3 3 3 3 3 4 3 6 5 2 8 26 21 6 10 15 10 6 10 12 14 14 15 18 18 16 17 17 17 19 19 18 17 16 15 16 16 17 19 20 20 21 22 22 22 20 18 18 18 18 19 19 20 21 22 22 22 22 23 24 26 27 29 30 30 31 30 29 29 29 29 30 30 30 31 31 32 32 32 33 33 32 31 30 31 32
3 3 5 3 3 5 5 6 4 2 12 28 25 13 16 22 18 10 9 10 14 16 16 17 16 15 15 15 15 15 15 16 16 17 18 19 20 20 20 21 21 22 23 24 24 23 21 20 20 20 22 22 22 23 23 23 23 24 24 26 27 30 31 31 31 31 30 29 29 29 30 30 29 30 31 31 31 31 32 32 32 31 30 29 29 30
1 3 4 2 2 4 4 4 5 3 10 24 25 17 15 17 18 17 15 14 15 15 15 15 15 14 14 14 13 12 13 14 16 19 20 21 20 20 20 21 22 23 24 26 27 26 24 23 23 24 25 25 26 25 25 25 25 24 25 27 29 31 32 32 32 31 30 29 29 29 30 30 29 30 31 30 30 31 32 32 32 31 30 29 29 30
2 4 4 1 2 4 3 3 6 5 10 20 23 20 17 16 17 20 20 20 19 18 17 17 17 16 14 13 12 12 14 16 18 19 20 20 21 21 20 20 21 22 24 26 27 28 28 28 28 27 28 28 28 28 27 26 25 25 26 28 30 32 33 33 32 31 30 30 30 30 30 30 30 31 30 30 30 31 31 30 30 30 29 28 28 29
3 5 4 3 4 3 2 2 3 4 10 18 22 22 21 19 20 21 21 21 20 20 20 20 19 18 16 15 15 16 17 18 19 20 21 21 22 22 22 22 22 22 23 24 25 28 31 31 31 31 31 31 30 30 29 27 24 24 26 28 30 32 33 33 33 32 31 31 30 30 30 31 31 31 30 29 29 30 30 29 29 29 28 27 27 28
3 5 4 2 3 2 0 2 3 1 4 14 22 25 23 21 21 21 21 21 21 21 22 22 21 21 20 20 20 19 19 21 22 22 22 22 23 24 24 23 23 23 23 23 25 27 29 31 32 33 33 33 32 31 30 27 24 24 25 27 29 31 33 34 34 33 32 31 31 31 31 31 32 31 30 29 29 29 30 29 28 28 28 26 25 27
5 4 3 3 2 4 3 7 9 4 3 12 22 26 24 22 22 22 22 22 23 24 24 23 23 23 24 25 23 21 21 24 25 23 23 24 25 26 25 24 24 23 23 23 25 27 29 30 31 31 32 34 34 32 30 27 25 25 26 27 29 31 33 35 35 33 32 32 31 31 31 31 31 30 30 29 29 29 30 28 26 26 27 27 26 26
10 9 7 6 5 4 5 14 19 14 9 13 20 22 22 22 24 25 25 25 25 24 24 24 25 25 25 26 26 24 25 27 27 26 26 27 28 28 26 25 24 23 23 24 26 27 28 28 28 28 29 31 33 33 32 29 26 26 27 27 28 30 33 34 34 34 33 32 32 31 31 31 30 30 29 29 29 30 30 29 26 23 23 25 27 26
Wind_Direction
162 145 191 224 210 188 200 201 203 184 133 144 144 152 191 220 261 254 242 273 191 192 266 241 233 255 265 277 26 87 127 121 138 144 139 141 132 127 115 99 85 61 51 42 32 53 81 97 98 93 88 80 80 84 88 95 98 100 105 112 109 105 106 108 105 102 100 93 89 89 85 98 118 126 145 224 192 214 241 246 251 249 248 264 284 293
142 176 226 230 200 185 206 202 188 149 134 137 150 190 246 228 254 263 246 294 304 183 272 299 273 270 265 277 31 99 134 116 152 151 143 145 136 130 123 110 103 92 85 80 84 102 110 117 116 111 110 110 105 100 98 96 94 97 102 105 105 109 115 113 108 105 102 95 85 74 73 69 68 90 19 329 322 304 292 285 287 279 266 269 275 274
140 220 241 231 139 129 127 168 184 202 187 170 134 167 275 240 267 290 297 339 19 172 273 326 299 274 274 352 52 59 102 100 157 159 149 148 139 132 126 118 120 116 112 116 112 110 111 111 112 112 110 107 102 97 94 92 92 93 94 94 96 98 99 95 94 92 88 84 78 74 73 67 62 71 61 39 32 13 347 338 341 342 328 314 306 295
176 245 245 197 132 127 82 131 164 189 211 195 156 175 253 236 87 284 296 343 16 129 255 283 297 279 282 60 59 54 93 97 109 135 138 143 138 130 128 125 128 126 121 118 114 112 110 109 109 107 103 100 98 96 93 92 91 90 89 89 91 91 90 89 87 85 81 79 78 77 75 73 73 71 63 53 48 39 28 21 19 17 9 0 351 343
220 254 206 136 139 160 167 140 147 172 233 233 194 205 233 224 208 229 285 331 341 14 38 117 343 294 280 266 258 77 96 93 100 120 122 130 134 131 134 134 132 127 122 118 115 112 111 109 107 103 101 99 98 96 94 92 90 89 89 88 89 88 87 85 82 80 78 78 77 76 75 73 73 76 75 70 65 59 51 44 36 31 26 18 7 1
250 257 129 116 128 168 175 190 186 181 208 281 225 214 221 221 219 227 340 7 2 345 329 82 326 290 307 294 223 168 109 88 101 117 117 127 137 141 143 137 133 129 123 119 116 114 111 108 105 102 100 98 96 94 91 89 88 88 88 88 87 85 83 80 78 75 74 74 74 72 74 74 75 80 78 68 63 60 53 46 39 33 29 22 14 7
247 250 144 138 144 148 168 228 225 172 148 270 242 208 212 208 203 204 147 96 183 253 294 72 180 256 316 311 229 161 130 106 106 118 133 144 147 151 149 142 138 132 126 122 117 115 111 107 104 101 98 94 92 90 87 85 84 84 85 85 85 82 80 77 75 74 72 72 72 69 68 69 65 62 60 56 52 50 48 44 39 36 33 29 23 15
206 217 152 151 141 140 177 234 220 159 139 234 241 157 165 178 187 191 163 169 225 245 321 3 158 238 287 279 244 136 146 243 218 211 190 165 159 158 154 148 143 135 128 124 120 116 112 109 105 101 98 95 91 89 89 87 85 83 83 84 84 82 81 78 76 76 73 70 68 65 62 61 57 53 52 50 43 42 42 38 37 35 33 34 33 29
169 194 200 175 157 181 203 222 186 160 155 244 196 119 133 155 161 149 138 170 262 14 299 292 169 247 265 264 303 119 201 251 214 212 216 184 172 168 162 155 147 140 133 128 123 119 115 111 107 104 101 98 96 95 94 92 89 86 84 84 84 83 82 80 77 74 71 66 61 59 56 55 55 54 53 49 42 41 37 29 32 31 29 32 32 32
99 208 206 161 163 205 204 271 179 170 189 185 126 90 75 73 80 90 112 127 61 58 243 238 187 212 272 280 262 154 238 247 205 203 207 187 179 174 168 161 152 146 139 132 127 123 119 115 111 108 106 104 102 100 98 95 93 89 86 84 83 81 80 78 74 68 66 63 56 54 52 52 53 54 55 50 41 42 36 27 28 25 24 24 21 23
346 89 194 158 182 187 135 75 153 154 142 138 112 67 51 36 39 39 59 94 72 275 245 234 207 204 265 277 235 197 223 206 162 172 193 187 186 180 174 166 157 152 144 137 132 127 124 120 116 114 112 110 106 103 101 99 97 92 88 83 79 79 78 75 71 65 63 61 55 52 50 49 52 52 52 41 33 36 26 16 18 16 14 12 10 12
334 111 260 215 181 140 102 71 54 89 119 122 95 85 82 352 11 23 358 47 161 255 263 276 257 198 229 258 246 226 226 184 158 172 182 186 190 184 177 170 163 157 149 142 137 133 130 126 123 122 119 115 112 110 109 105 100 96 91 81 77 81 81 77 71 65 63 61 57 55 49 48 50 45 34 22 19 21 12 9 14 12 8 6 4 4
294 234 266 257 189 167 120 78 46 38 78 104 103 111 108 331 360 358 305 271 227 246 272 309 287 216 234 247 233 208 202 219 232 213 191 186 187 184 179 173 167 162 155 148 144 140 137 133 131 130 126 121 119 118 117 112 104 98 94 85 77 81 84 80 74 68 66 60 60 61 51 49 48 31 16 10 6 3 0 3 4 358 356 355 355 354
279 290 265 137 226 198 166 143 158 189 159 155 148 138 137 139 134 257 256 260 265 256 287 297 272 253 263 267 240 216 235 290 272 251 212 193 187 182 178 174 171 167 161 155 151 147 144 142 140 138 135 130 128 127 125 117 108 99 95 90 78 81 87 84 75 69 65 59 60 61 49 45 41 18 6 359 352 349 348 348 348 347 349 350 351 352
213 292 209 182 207 187 180 175 159 144 147 185 166 137 147 157 171 214 213 209 248 280 305 289 231 197 211 260 269 257 308 334 287 248 208 196 190 182 177 177 177 172 166 162 158 155 153 151 150 148 145 141 138 137 133 123 114 105 100 96 84 83 89 89 79 70 64 58 54 52 42 32 20 4 355 347 344 343 343 343 344 345 346 346 347 349
181 266 247 247 141 162 178 180 129 114 128 215 129 112 169 187 158 162 187 173 174 302 297 219 216 218 190 231 296 296 348 22 16 169 171 182 187 182 181 182 181 176 171 168 165 162 161 160 160 159 156 153 150 148 143 132 121 116 109 103 97 94 96 97 86 70 64 57 48 43 31 9 353 344 336 338 339 337 338 338 338 338 338 338 338 339
144 270 282 357 40 146 179 174 123 123 171 163 133 178 219 185 121 109 245 60 86 263 271 194 244 286 337 300 299 358 2 7 32 133 160 172 178 181 185 186 184 180 175 173 170 167 168 169 169 169 166 163 160 159 155 145 136 135 133 126 126 128 128 132 125 101 87 68 37 6 317 314 311 316 321 327 326 327 329 327 325 325 325 326 325 324
152 261 293 90 137 301 75 111 72 52 116 127 183 209 199 139 92 104 222 347 52 241 271 213 229 263 245 255 293 10 296 265 242 177 163 170 177 183 188 189 187 183 178 176 175 174 176 178 178 176 175 173 171 171 169 164 159 158 164 169 175 186 184 182 187 190 199 210 239 242 242 269 277 283 296 303 305 308 311 310 311 312 312 314 315 315
148 232 297 60 166 284 37 101 69 18 62 121 181 182 124 146 156 108 166 224 207 241 278 288 262 242 200 208 213 212 227 222 206 193 178 180 185 189 193 192 189 185 183 183 182 182 183 183 184 184 182 182 181 181 181 180 179 180 187 193 196 206 209 209 212 216 220 224 232 240 242 252 259 266 274 281 290 296 301 305 310 313 315 317 318 317
132 178 268 308 221 222 36 107 171 229 354 61 95 100 48 156 167 156 159 170 177 221 275 298 304 271 222 199 180 199 214 197 181 189 197 197 194 195 196 194 191 189 188 188 187 187 188 187 190 190 190 190 189 190 190 190 194 197 201 205 209 217 219 218 220 220 224 227 231 235 236 242 253 265 283 296 310 316 319 322 323 325 325 324 323 321
112 178 234 305 327 153 166 208 190 187 180 145 146 175 212 120 118 189 194 133 140 167 219 266 279 271 248 196 184 214 230 190 183 188 194 201 201 200 199 196 194 193 192 192 191 191 192 193 195 196 195 198 197 197 197 198 203 206 209 213 217 221 220 220 222 221 225 228 230 237 242 253 269 287 305 318 325 327 329 330 330 330 329 327 325 322
164 176 180 197 200 177 229 248 204 196 190 176 187 190 187 168 129 185 239 198 139 170 182 211 262 271 252 173 206 259 270 203 193 188 191 205 207 205 204 201 199 198 196 196 195 195 197 199 201 201 201 203 203 203 203 204 208 211 215 220 221 221 220 220 223 225 232 236 238 246 254 266 286 302 316 325 329 331 334 334 334 335 333 332 330 328
149 125 135 198 216 210 251 270 213 218 217 179 218 200 180 180 157 179 225 220 133 209 154 138 256 278 267 115 282 267 265 222 197 193 198 208 210 210 209 206 205 204 203 202 201 203 205 206 207 207 208 209 208 207 209 209 212 216 222 225 224 223 222 224 228 232 236 240 244 254 269 290 310 322 328 331 332 333 335 334 334 333 332 331 330 328
142 128 137 245 302 304 305 313 264 213 122 201 250 179 162 197 171 162 207 148 138 217 167 106 249 270 322 9 15 322 265 197 191 197 205 209 208 210 212 210 210 209 209 209 209 211 212 212 213 214 215 215 211 210 212 212 216 222 226 228 226 225 226 228 232 236 240 248 261 276 294 311 321 328 330 330 330 331 332 332 331 331 329 328 327 326
175 169 137 144 325 322 326 316 267 261 188 210 231 183 171 148 101 88 99 97 233 218 168 190 248 251 309 339 13 31 93 155 188 200 208 213 208 208 212 213 214 214 214 215 216 217 218 217 219 220 221 219 215 213 214 215 220 227 230 230 228 226 228 233 237 241 250 263 274 285 299 311 319 325 326 327 327 328 328 328 327 326 325 324 324 322
169 173 159 176 216 227 223 224 221 211 190 207 210 195 194 159 148 156 127 174 237 192 157 219 247 250 320 321 346 5 62 157 196 204 211 218 210 210 214 216 218 218 219 219 220 222 223 223 224 225 225 223 219 218 219 220 224 229 232 231 229 230 233 238 241 246 257 267 277 289 301 310 316 322 324 324 326 325 325 324 323 323 322 322 322 320
134 204 195 205 227 218 196 219 229 122 130 194 216 196 200 191 178 167 144 202 218 163 191 230 220 174 275 250 243 301 232 197 207 205 210 215 213 215 219 221 223 224 224 225 226 228 229 229 230 229 228 225 223 223 224 225 228 233 237 236 234 234 234 235 238 245 257 269 282 293 301 308 314 319 321 322 323 322 322 322 321 321 321 320 320 319
95 226 213 218 244 230 174 185 206 111 143 203 219 226 228 212 184 188 213 212 158 166 239 235 159 176 230 209 199 224 217 213 213 203 207 213 214 215 217 221 225 228 231 231 232 234 234 234 234 232 229 227 226 227 229 231 233 237 240 238 234 232 230 231 237 246 258 271 283 291 298 305 310 314 317 317 318 319 319 319 318 318 318 318 318 317
122 230 216 190 246 258 247 209 177 166 207 217 216 230 233 221 202 203 220 214 176 207 249 220 151 207 233 196 194 212 208 202 199 200 206 212 210 210 213 224 234 241 244 243 242 241 240 239 238 235 231 228 228 230 233 233 235 238 239 233 226 225 226 229 237 247 258 269 279 287 294 300 305 309 312 313 314 315 315 315 315 315 315 315 315 314
142 227 203 174 235 255 246 214 176 185 211 220 223 229 229 221 210 206 218 217 199 228 259 196 179 232 236 190 199 216 215 210 211 217 224 219 213 219 234 246 253 255 253 251 250 250 249 245 242 239 233 230 230 233 235 235 237 241 238 229 223 224 227 231 239 249 258 267 276 283 290 295 300 304 307 309 311 311 312 312 312 312 312 312 311 310
173 205 143 146 222 248 222 181 187 205 212 223 236 235 215 195 205 211 217 201 166 237 253 236 241 256 236 169 185 218 227 228 235 242 244 240 238 247 256 259 262 260 256 256 255 254 252 249 245 240 233 230 231 234 235 236 239 241 236 227 225 227 231 236 244 251 258 265 273 280 286 292 297 300 303 306 307 308 308 308 308 309 309 309 308 307
181 191 71 116 214 240 194 166 187 204 225 248 248 236 179 173 208 204 198 186 185 214 226 224 244 258 220 146 175 223 225 222 233 240 245 252 255 258 260 261 261 259 257 255 250 245 242 240 238 236 231 229 230 231 233 237 241 240 233 227 228 233 238 243 249 253 258 264 271 277 283 289 293 297 299 302 304 304 305 305 306 307 307 306 305 305
166 162 132 168 209 234 26 152 154 121 262 257 251 220 184 202 219 171 162 211 208 200 200 217 235 242 170 143 185 233 223 216 232 240 247 256 260 259 259 257 255 252 243 234 230 228 231 232 232 230 228 226 228 232 238 244 244 239 233 232 237 242 245 249 252 256 260 265 270 276 281 286 290 294 296 298 300 302 303 304 305 306 305 304 303 304
170 172 175 183 193 219 11 74 120 168 225 248 262 192 189 205 212 205 214 221 208 195 204 234 251 118 136 178 214 236 236 233 243 251 255 259 260 260 259 253 243 232 224 223 227 229 231 231 227 224 223 226 232 238 243 244 241 236 233 237 243 247 251 255 258 261 264 267 271 275 279 284 287 290 292 295 298 301 303 305 306 306 304 303 303 304
176 180 188 162 148 146 65 90 169 217 232 261 342 349 192 195 197 209 238 248 216 208 221 243 261 224 218 228 233 241 252 257 260 262 263 263 260 256 252 244 232 224 225 229 230 230 227 223 221 222 225 231 236 240 240 238 235 233 234 239 246 251 257 262 264 266 267 268 270 273 277 281 284 287 291 296 300 302 304 305 306 305 303 303 304 305
176 174 157 118 135 120 116 176 208 241 264 305 337 348 48 83 112 150 286 272 228 209 208 214 230 236 236 240 243 249 261 271 275 272 266 262 259 250 239 235 230 227 231 232 229 228 225 222 225 229 233 238 240 240 240 239 238 238 240 245 250 255 261 265 266 266 266 266 268 271 275 278 283 288 294 299 302 303 305 305 304 303 302 303 304 306
173 169 168 190 186 151 172 206 236 324 295 236 264 255 172 147 149 151 221 255 235 199 184 187 222 238 237 241 249 252 260 286 295 278 265 256 251 242 232 228 228 229 231 228 224 222 220 222 227 230 233 236 237 238 241 242 243 246 247 250 255 260 264 266 267 266 266 266 267 270 273 278 285 293 298 301 302 304 304 304 303 302 303 303 305 306
162 176 192 216 210 137 157 213 238 275 252 225 200 218 186 161 158 142 172 265 268 196 183 185 213 232 227 227 225 208 198 351 307 271 259 250 241 234 227 226 227 228 227 225 226 225 222 222 227 232 237 239 239 240 240 242 246 249 252 256 262 266 266 266 266 265 264 264 265 268 273 281 290 296 299 301 302 304 303 302 301 302 304 304 305 306
60 74 142 198 212 142 172 220 208 221 255 249 184 208 128 145 141 107 77 280 272 192 186 187 204 220 214 203 185 156 133 157 249 264 264 253 238 232 231 231 229 228 229 230 229 225 222 225 233 241 246 247 248 248 246 246 249 252 257 262 264 265 265 265 264 263 261 261 263 268 276 285 293 297 299 300 302 302 301 301 302 303 304 304 305 306
72 64 151 191 206 195 201 225 231 243 263 170 164 149 131 140 127 95 333 272 244 189 185 184 196 210 209 195 174 153 164 198 232 272 278 248 224 227 230 234 235 236 237 233 229 226 226 234 245 255 259 258 256 254 251 251 254 257 261 264 264 264 265 264 263 261 260 260 264 271 280 289 295 297 298 299 300 301 300 301 303 304 304 304 305 307
135 274 194 208 222 223 222 233 273 264 225 188 172 152 137 123 105 115 240 231 185 183 184 182 194 207 202 186 175 185 217 227 243 267 266 210 223 236 237 244 246 244 240 232 229 232 237 249 263 269 269 265 260 257 256 255 258 262 264 264 265 266 266 263 262 261 260 262 267 275 284 291 295 297 297 298 299 299 300 302 304 304 304 304 306 308
164 156 207 213 212 223 238 246 278 275 216 158 150 151 142 125 139 219 196 154 157 173 181 182 191 204 203 197 197 211 232 243 251 256 247 238 254 258 255 255 250 244 240 235 234 237 244 260 270 268 264 263 261 260 260 259 261 264 265 266 269 268 266 264 263 262 262 264 271 279 287 292 295 296 297 297 298 298 300 303 304 303 303 305 307 308
169 153 191 217 179 150 261 221 230 281 191 142 133 131 168 185 202 171 153 153 160 170 181 187 194 203 206 210 216 226 238 245 246 247 244 245 257 262 257 253 249 247 246 243 242 243 251 264 268 264 260 261 260 260 260 260 262 264 267 271 272 268 266 265 264 263 264 267 274 283 289 294 296 297 297 296 296 297 300 303 303 302 303 305 307 309
187 164 187 228 188 153 198 214 209 284 162 156 153 167 209 208 206 156 152 173 178 179 188 195 203 210 213 219 226 232 240 244 244 248 251 252 259 263 260 256 251 246 244 244 245 248 255 264 267 261 257 256 256 258 258 259 261 264 268 273 272 269 268 267 265 265 266 270 277 285 290 294 295 296 296 295 295 297 301 303 302 302 303 305 307 308
222 177 176 207 204 171 191 215 205 131 168 176 182 196 205 212 221 210 191 200 199 196 200 205 212 219 223 228 231 233 240 247 252 256 258 259 263 265 265 265 258 250 246 246 248 250 256 264 266 261 256 255 255 256 257 258 260 264 269 272 271 269 269 268 267 267 268 273 280 286 290 293 294 295 295 294 295 298 301 302 302 302 303 305 307 308
247 144 149 153 259 250 241 204 180 168 182 187 195 207 213 219 226 222 220 225 222 218 220 225 234 240 235 229 227 232 248 260 265 265 263 265 268 268 269 270 264 256 252 249 249 252 256 260 261 258 256 255 254 254 256 257 259 265 270 272 271 270 269 267 267 268 270 275 282 286 289 292 293 294 294 294 296 299 301 302 302 302 304 306 307 308
255 165 163 172 247 257 265 190 167 174 187 187 193 207 216 221 227 228 230 235 238 241 242 247 255 254 242 230 231 249 271 280 279 274 270 269 270 271 272 271 267 263 260 257 256 256 256 258 259 259 259 257 255 255 255 255 259 265 269 271 271 270 269 267 268 269 272 277 282 286 289 291 292 293 292 293 296 299 301 302 302 302 304 306 306 307
222 168 178 233 226 210 216 203 183 185 196 195 198 208 218 223 227 230 233 237 243 249 252 254 255 247 239 240 246 258 275 284 281 278 274 271 271 273 272 271 268 266 264 263 262 259 257 258 260 261 262 261 258 256 254 254 259 264 268 271 272 271 269 269 269 270 272 277 282 285 288 290 291 291 291 292 296 299 301 301 301 301 303 304 305 306
143 165 189 202 207 208 146 142 138 87 236 218 211 213 221 229 232 233 238 241 245 250 255 258 257 250 246 247 249 258 274 281 279 277 274 272 273 274 273 273 271 269 267 266 264 263 262 263 263 263 263 262 260 255 251 251 256 262 267 270 271 271 270 269 268 270 272 277 281 284 286 288 288 289 290 292 296 299 300 301 301 301 302 303 303 304
139 193 190 124 193 244 215 168 169 168 256 229 218 219 227 235 237 237 242 247 251 256 260 261 261 258 253 247 248 260 275 278 276 274 274 273 272 273 274 275 272 271 270 268 267 266 266 267 268 267 265 262 258 252 247 248 254 261 266 269 270 270 269 267 267 269 273 277 281 282 283 285 286 287 289 292 296 299 300 300 299 300 303 305 305 305
193 209 196 174 209 229 178 182 193 205 234 242 238 240 242 242 241 241 246 254 259 263 265 264 262 261 258 255 257 266 273 274 273 272 272 271 270 271 273 273 271 270 272 272 271 269 266 266 267 267 265 260 254 247 244 247 254 261 265 267 269 269 267 266 267 269 273 277 279 280 281 283 285 286 288 291 296 299 300 300 299 298 301 303 304 304
Height
1532 1535 1536 1531 1529 1531 1532 1531 1530 1531 1535 1537 1538 1540 1540 1540 1537 1536 1536 1536 1536 1536 1534 1533 1534 1531 1526 1526 1529 1530 1529 1529 1529 1529 1530 1530 1530 1530 1529 1529 1528 1528 1528 1528 1528 1528 1528 1528 1529 1529 1529 1529 1528 1528 1528 1528 1527 1527 1527 1526 1526 1526 1527 1528 1529 1529 1530 1531 1532 1533 1533 1534 1535 1536 1536 1537 1537 1538 1539 1539 1539 1539 1539 1539 1539 1539
1533 1535 1530 1523 1524 1529 1529 1530 1532 1534 1535 1536 1538 1539 1541 1542 1539 1535 1536 1536 1536 1537 1534 1534 1535 1530 1526 1527 1530 1530 1530 1530 1530 1530 1530 1530 1530 1530 1529 1529 1528 1528 1528 1528 1528 1528 1528 1528 1528 1529 1529 1529 1529 1529 1529 1529 1529 1529 1528 1528 1527 1528 1528 1528 1529 1529 1530 1531 1532 1533 1534 1534 1535 1536 1537 1537 1538 1538 1539 1539 1539 1539 1539 1539 1539 1539
1536 1533 1524 1522 1527 1529 1530 1532 1534 1535 1536 1537 1539 1541 1541 1541 1539 1535 1536 1537 1537 1536 1534 1535 1535 1527 1524 1528 1531 1530 1530 1531 1530 1530 1530 1530 1530 1530 1529 1529 1528 1528 1528 1528 1528 1528 1528 1528 1528 1529 1529 1530 1529 1530 1530 1530 1531 1531 1530 1530 1530 1530 1530 1530 1530 1530 1530 1531 1532 1533 1534 1535 1536 1536 1537 1538 1538 1539 1539 1539 1539 1539 1539 1539 1539 1539
1534 1528 1521 1523 1527 1528 1531 1533 1534 1535 1537 1538 1539 1541 1539 1538 1539 1535 1534 1537 1537 1537 1535 1534 1534 1528 1523 1527 1531 1532 1532 1531 1531 1531 1531 1531 1531 1530 1530 1529 1529 1529 1528 1528 1528 1528 1528 1529 1529 1530 1530 1530 1530 1530 1531 1531 1532 1532 1532 1532 1533 1532 1532 1532 1532 1532 1532 1532 1533 1534 1535 1536 1536 1536 1537 1538 1539 1539 1540 1540 1540 1539 1539 1539 1538 1538
1525 1522 1521 1524 1526 1527 1529 1532 1534 1535 1536 1538 1538 1538 1535 1535 1537 1535 1535 1536 1535 1537 1536 1535 1535 1528 1520 1522 1527 1531 1533 1532 1532 1532 1532 1532 1531 1531 1530 1530 1529 1529 1529 1529 1529 1530 1530 1530 1531 1531 1531 1531 1531 1531 1532 1532 1533 1533 1534 1534 1535 1535 1534 1534 1534 1534 1534 1535 1535 1535 1536 1537 1537 1538 1538 1539 1539 1540 1540 1541 1541 1540 1540 1540 1539 1539
1523 1521 1521 1523 1526 1527 1528 1531 1532 1532 1535 1537 1534 1531 1530 1531 1533 1535 1536 1537 1536 1537 1536 1537 1535 1526 1517 1517 1523 1530 1532 1533 1533 1533 1532 1532 1532 1531 1531 1530 1530 1530 1530 1531 1531 1531 1532 1532 1533 1533 1533 1533 1533 1533 1533 1534 1534 1534 1534 1535 1536 1536 1536 1536 1536 1537 1537 1537 1537 1537 1538 1539 1539 1540 1540 1540 1540 1540 1541 1541 1542 1542 1541 1541 1540 1540
1523 1521 1521 1522 1525 1526 1529 1530 1529 1531 1536 1536 1530 1527 1529 1530 1533 1535 1536 1537 1538 1536 1537 1539 1535 1528 1519 1513 1519 1529 1530 1531 1533 1532 1532 1532 1531 1532 1531 1531 1531 1531 1531 1532 1532 1533 1533 1534 1534 1534 1535 1535 1535 1535 1536 1536 1536 1536 1536 1536 1537 1537 1537 1537 1538 1539 1540 1539 1539 1540 1540 1541 1541 1541 1541 1541 1541 1541 1541 1542 1543 1543 1543 1542 1542 1541
1519 1519 1521 1522 1523 1526 1528 1526 1526 1530 1532 1532 1528 1527 1529 1529 1531 1534 1535 1536 1536 1536 1538 1538 1535 1534 1527 1517 1521 1528 1526 1528 1533 1532 1532 1532 1531 1532 1532 1531 1532 1532 1532 1532 1533 1533 1534 1535 1535 1535 1536 1536 1537 1537 1538 1539 1539 1539 1539 1538 1538 1538 1538 1539 1540 1541 1541 1541 1541 1541 1541 1542 1542 1542 1542 1542 1543 1543 1543 1543 1543 1544 1544 1543 1543 1542
1516 1517 1519 1521 1523 1525 1524 1521 1524 1526 1526 1527 1529 1530 1530 1530 1531 1533 1534 1536 1539 1540 1537 1534 1534 1534 1528 1520 1524 1527 1521 1521 1528 1530 1530 1530 1531 1531 1531 1531 1531 1532 1532 1533 1533 1534 1534 1535 1536 1536 1537 1537 1538 1539 1540 1540 1540 1540 1541 1541 1540 1540 1540 1540 1541 1542 1542 1542 1542 1542 1542 1542 1542 1542 1543 1543 1544 1544 1544 1544 1544 1544 1544 1544 1544 1543
1517 1517 1517 1519 1521 1521 1520 1521 1523 1523 1523 1526 1530 1532 1532 1534 1536 1536 1536 1536 1540 1542 1535 1529 1530 1530 1525 1518 1519 1523 1516 1513 1521 1527 1527 1528 1529 1530 1530 1531 1531 1532 1532 1532 1533 1533 1534 1535 1536 1537 1537 1538 1539 1540 1541 1541 1541 1541 1541 1542 1542 1541 1541 1541 1542 1542 1542 1541 1542 1542 1542 1542 1542 1543 1544 1544 1545 1545 1545 1545 1544 1544 1544 1544 1544 1543
1517 1518 1518 1517 1517 1516 1519 1523 1525 1524 1524 1526 1528 1528 1530 1534 1536 1537 1538 1537 1539 1538 1530 1528 1528 1527 1526 1518 1512 1515 1513 1511 1517 1523 1525 1527 1528 1528 1529 1530 1530 1531 1532 1532 1533 1534 1535 1535 1536 1537 1538 1539 1539 1541 1542 1541 1541 1541 1541 1542 1542 1541 1542 1542 1542 1542 1542 1542 1542 1542 1542 1542 1543 1543 1544 1544 1545 1545 1545 1545 1545 1545 1545 1545 1544 1544
1518 1518 1517 1515 1514 1515 1518 1521 1525 1525 1525 1525 1524 1525 1530 1533 1535 1538 1539 1540 1539 1532 1528 1535 1536 1531 1527 1515 1507 1510 1514 1515 1516 1518 1521 1524 1525 1526 1528 1529 1530 1531 1532 1533 1533 1534 1535 1536 1536 1538 1538 1539 1539 1541 1542 1542 1541 1541 1541 1543 1542 1542 1542 1542 1543 1542 1542 1542 1542 1542 1542 1543 1543 1544 1544 1544 1545 1545 1545 1545 1545 1545 1545 1545 1545 1545
1516 1515 1515 1514 1514 1514 1515 1519 1525 1527 1526 1525 1523 1526 1532 1536 1538 1538 1538 1541 1539 1531 1533 1540 1537 1531 1525 1512 1505 1508 1513 1518 1517 1517 1519 1520 1522 1524 1526 1528 1529 1531 1532 1532 1533 1534 1535 1536 1537 1538 1539 1539 1540 1541 1543 1542 1541 1541 1541 1543 1543 1542 1543 1543 1543 1543 1542 1542 1542 1542 1543 1543 1543 1544 1544 1544 1545 1545 1545 1545 1545 1545 1546 1545 1545 1545
1516 1513 1513 1514 1512 1511 1511 1514 1520 1523 1525 1524 1521 1523 1529 1536 1539 1537 1538 1542 1536 1529 1536 1543 1537 1529 1519 1510 1510 1512 1514 1518 1517 1517 1518 1518 1520 1522 1524 1527 1528 1530 1531 1531 1533 1534 1534 1536 1537 1538 1539 1539 1540 1541 1542 1542 1541 1541 1542 1543 1543 1543 1543 1543 1543 1543 1542 1542 1542 1542 1543 1543 1543 1544 1544 1544 1545 1545 1545 1545 1545 1545 1545 1545 1545 1544
1518 1511 1506 1508 1507 1505 1506 1507 1510 1515 1522 1524 1522 1521 1523 1525 1525 1525 1527 1528 1526 1526 1535 1540 1532 1518 1508 1509 1517 1518 1517 1518 1515 1515 1516 1517 1520 1521 1523 1526 1526 1528 1529 1530 1532 1533 1534 1535 1536 1537 1538 1539 1540 1541 1542 1542 1541 1541 1542 1542 1543 1542 1543 1543 1542 1542 1542 1542 1542 1542 1542 1542 1543 1543 1543 1544 1544 1545 1545 1545 1545 1545 1545 1545 1544 1544
1518 1508 1500 1503 1503 1502 1504 1504 1506 1511 1518 1525 1525 1523 1521 1516 1514 1522 1531 1531 1530 1531 1532 1531 1522 1510 1509 1516 1521 1520 1517 1517 1515 1514 1515 1516 1518 1520 1521 1523 1524 1526 1527 1528 1530 1531 1532 1534 1535 1536 1537 1538 1540 1540 1541 1541 1540 1541 1541 1542 1542 1542 1542 1542 1542 1542 1541 1541 1541 1542 1542 1542 1542 1543 1543 1543 1544 1545 1545 1545 1545 1545 1545 1545 1544 1544
1514 1507 1502 1504 1504 1504 1505 1504 1506 1507 1511 1522 1525 1519 1518 1517 1512 1521 1536 1542 1542 1533 1524 1523 1516 1508 1511 1514 1517 1520 1517 1517 1517 1514 1514 1515 1516 1518 1519 1520 1522 1523 1524 1526 1528 1529 1531 1532 1533 1535 1536 1537 1539 1539 1540 1540 1540 1540 1540 1541 1541 1541 1541 1541 1541 1541 1541 1541 1542 1542 1542 1542 1542 1543 1543 1543 1543 1544 1545 1545 1545 1545 1545 1544 1544 1544
1503 1501 1502 1505 1504 1505 1506 1504 1506 1507 1508 1516 1519 1513 1515 1518 1515 1518 1525 1533 1540 1533 1521 1518 1514 1506 1505 1506 1512 1519 1515 1514 1517 1515 1515 1516 1516 1517 1517 1518 1519 1521 1523 1525 1526 1528 1529 1530 1532 1533 1534 1536 1537 1538 1539 1539 1539 1539 1540 1540 1541 1541 1541 1541 1541 1541 1541 1542 1542 1542 1542 1542 1542 1543 1543 1543 1543 1544 1544 1545 1545 1545 1545 1544 1544 1543
1498 1499 1502 1507 1506 1506 1506 1505 1507 1509 1509 1510 1511 1510 1512 1514 1515 1520 1523 1521 1527 1529 1518 1513 1512 1508 1503 1500 1504 1507 1505 1508 1514 1515 1515 1515 1514 1515 1514 1516 1518 1520 1522 1522 1524 1525 1526 1528 1530 1531 1533 1534 1535 1536 1537 1538 1538 1538 1539 1539 1539 1540 1540 1540 1541 1541 1541 1542 1541 1541 1542 1542 1542 1542 1542 1543 1543 1543 1544 1545 1545 1545 1544 1543 1543 1542
1496 1497 1500 1506 1506 1505 1506 1506 1506 1509 1511 1511 1511 1512 1512 1511 1511 1515 1518 1515 1516 1521 1516 1508 1504 1498 1496 1496 1495 1494 1496 1502 1509 1513 1513 1512 1511 1511 1511 1512 1515 1517 1518 1519 1521 1523 1525 1527 1528 1530 1532 1533 1534 1535 1536 1537 1537 1537 1538 1538 1538 1539 1540 1540 1541 1541 1541 1541 1541 1541 1541 1542 1542 1542 1542 1542 1543 1543 1543 1544 1544 1543 1543 1542 1541 1541
1495 1497 1499 1504 1508 1506 1503 1503 1501 1502 1506 1508 1510 1513 1512 1513 1513 1512 1514 1513 1512 1514 1514 1511 1502 1490 1491 1498 1494 1492 1497 1501 1504 1507 1507 1508 1507 1507 1508 1511 1512 1514 1515 1517 1519 1521 1523 1525 1527 1528 1530 1531 1532 1533 1534 1535 1536 1536 1537 1537 1538 1538 1539 1539 1540 1540 1541 1540 1540 1541 1541 1541 1541 1541 1541 1542 1542 1542 1543 1543 1543 1542 1541 1541 1540 1539
1493 1496 1498 1502 1505 1502 1499 1500 1501 1500 1501 1501 1503 1504 1504 1507 1510 1512 1512 1511 1511 1509 1507 1509 1502 1488 1491 1501 1500 1499 1501 1501 1502 1504 1504 1505 1505 1506 1509 1511 1513 1514 1514 1517 1519 1521 1523 1524 1525 1526 1528 1529 1530 1532 1533 1533 1534 1535 1535 1536 1537 1537 1538 1538 1539 1539 1540 1539 1539 1540 1540 1540 1540 1540 1541 1541 1541 1541 1541 1541 1540 1539 1539 1538 1537 1536
1488 1493 1496 1498 1500 1500 1500 1502 1503 1502 1502 1501 1500 1499 1499 1500 1500 1502 1505 1506 1510 1509 1506 1509 1506 1493 1494 1502 1502 1502 1502 1501 1503 1503 1503 1504 1505 1508 1510 1511 1513 1514 1516 1518 1519 1520 1522 1522 1524 1525 1526 1527 1529 1530 1531 1532 1532 1533 1534 1535 1535 1536 1536 1537 1538 1538 1538 1538 1538 1538 1539 1539 1539 1539 1539 1539 1539 1539 1538 1538 1537 1536 1536 1535 1534 1533
1486 1490 1493 1496 1498 1499 1500 1501 1501 1502 1502 1500 1498 1499 1500 1498 1496 1498 1501 1503 1506 1504 1504 1512 1508 1495 1495 1501 1501 1501 1501 1501 1502 1502 1503 1504 1504 1507 1508 1510 1512 1514 1516 1518 1518 1519 1520 1521 1522 1523 1523 1525 1526 1528 1529 1530 1531 1532 1532 1533 1534 1534 1535 1535 1536 1536 1536 1537 1537 1537 1537 1537 1537 1537 1537 1537 1537 1536 1536 1536 1535 1534 1533 1533 1532 1531
1483 1486 1490 1496 1501 1501 1502 1502 1500 1501 1500 1497 1496 1499 1498 1496 1498 1503 1504 1507 1506 1500 1502 1510 1505 1494 1496 1501 1501 1502 1501 1500 1502 1502 1502 1503 1503 1505 1506 1508 1510 1512 1514 1515 1516 1517 1518 1519 1520 1520 1521 1523 1524 1526 1527 1528 1529 1530 1530 1531 1532 1532 1533 1533 1534 1534 1534 1535 1535 1535 1535 1535 1535 1535 1535 1535 1535 1535 1535 1534 1533 1533 1532 1531 1530 1529
1478 1483 1485 1489 1494 1494 1495 1495 1493 1494 1496 1497 1497 1498 1497 1496 1497 1499 1501 1506 1506 1501 1502 1505 1498 1493 1498 1500 1499 1501 1501 1501 1501 1502 1502 1503 1503 1504 1505 1506 1508 1510 1512 1513 1513 1514 1515 1516 1517 1517 1519 1521 1522 1524 1525 1526 1527 1528 1528 1529 1530 1530 1531 1532 1532 1532 1533 1533 1533 1533 1533 1533 1533 1533 1533 1533 1533 1533 1533 1532 1531 1530 1529 1528 1527 1526
1478 1482 1481 1480 1481 1482 1483 1486 1487 1488 1490 1493 1493 1493 1494 1496 1496 1496 1499 1502 1501 1501 1500 1495 1491 1494 1497 1498 1499 1500 1501 1500 1501 1502 1502 1502 1503 1503 1504 1506 1507 1509 1509 1510 1511 1512 1513 1513 1513 1514 1516 1518 1521 1522 1523 1524 1525 1525 1526 1527 1528 1529 1529 1530 1530 1530 1531 1531 1530 1531 1531 1531 1531 1531 1531 1531 1531 1531 1530 1530 1529 1528 1527 1526 1525 1524
1479 1481 1479 1479 1480 1480 1482 1486 1487 1486 1488 1489 1490 1489 1490 1492 1494 1495 1496 1494 1495 1500 1497 1489 1491 1494 1493 1494 1498 1498 1498 1499 1500 1500 1500 1500 1502 1503 1504 1505 1506 1506 1507 1508 1509 1510 1510 1510 1510 1512 1514 1516 1518 1519 1520 1521 1522 1523 1524 1525 1526 1527 1527 1528 1528 1528 1528 1528 1528 1528 1528 1529 1529 1529 1529 1529 1529 1529 1528 1527 1526 1525 1524 1523 1522 1520
1479 1479 1477 1479 1481 1479 1482 1486 1486 1487 1490 1490 1489 1488 1486 1488 1490 1492 1492 1489 1490 1492 1488 1487 1492 1492 1488 1492 1496 1494 1494 1496 1497 1498 1498 1499 1500 1501 1502 1503 1504 1505 1506 1506 1506 1506 1506 1506 1507 1509 1511 1513 1515 1517 1518 1519 1520 1521 1522 1522 1524 1524 1525 1525 1525 1525 1526 1526 1526 1526 1526 1527 1527 1527 1527 1527 1526 1526 1525 1524 1524 1522 1521 1520 1519 1517
1477 1478 1477 1479 1481 1480 1481 1485 1487 1488 1489 1488 1487 1483 1481 1483 1486 1489 1488 1487 1488 1488 1486 1491 1496 1491 1487 1490 1492 1492 1493 1495 1496 1497 1497 1497 1499 1500 1501 1501 1502 1503 1503 1503 1503 1503 1503 1504 1505 1507 1509 1511 1512 1514 1515 1516 1517 1518 1519 1520 1521 1522 1522 1523 1523 1523 1524 1523 1524 1524 1525 1525 1525 1525 1525 1525 1524 1524 1523 1522 1521 1520 1518 1517 1516 1514
1476 1478 1478 1480 1482 1482 1482 1487 1488 1487 1487 1486 1481 1478 1480 1485 1488 1489 1488 1487 1491 1491 1489 1493 1495 1490 1486 1488 1491 1491 1493 1494 1495 1495 1495 1496 1497 1498 1499 1499 1499 1499 1499 1500 1500 1500 1501 1502 1503 1504 1506 1508 1510 1511 1513 1514 1515 1516 1517 1518 1519 1519 1520 1520 1521 1521 1521 1521 1522 1522 1523 1523 1523 1523 1523 1522 1522 1521 1520 1519 1518 1517 1516 1514 1512 1511
1476 1480 1482 1484 1482 1479 1484 1492 1490 1489 1492 1490 1479 1477 1483 1485 1483 1484 1486 1485 1485 1486 1487 1492 1492 1486 1484 1487 1490 1490 1490 1492 1492 1492 1493 1494 1494 1496 1495 1495 1496 1496 1496 1497 1497 1498 1498 1499 1500 1502 1504 1506 1508 1509 1510 1512 1513 1513 1514 1515 1516 1517 1518 1518 1518 1519 1519 1519 1520 1520 1521 1521 1521 1521 1521 1520 1520 1519 1518 1517 1515 1514 1512 1511 1509 1508
1476 1477 1479 1483 1479 1478 1490 1496 1492 1494 1495 1483 1469 1469 1478 1479 1476 1479 1483 1481 1479 1480 1484 1486 1483 1479 1482 1486 1487 1487 1488 1489 1489 1489 1490 1491 1491 1492 1492 1492 1494 1494 1494 1495 1495 1496 1497 1498 1499 1500 1502 1504 1506 1507 1509 1509 1510 1511 1512 1513 1514 1515 1515 1516 1516 1516 1517 1517 1518 1518 1518 1518 1518 1518 1518 1518 1517 1516 1515 1513 1512 1511 1509 1507 1506 1504
1474 1473 1475 1478 1475 1481 1496 1499 1495 1493 1482 1464 1458 1463 1467 1469 1471 1474 1475 1474 1475 1477 1477 1477 1477 1479 1483 1484 1483 1483 1484 1485 1486 1486 1487 1488 1489 1489 1489 1490 1492 1492 1493 1494 1494 1495 1496 1497 1498 1499 1501 1503 1504 1505 1507 1507 1508 1509 1510 1511 1512 1512 1513 1513 1514 1514 1514 1515 1515 1516 1516 1516 1516 1516 1515 1515 1514 1513 1511 1510 1508 1507 1505 1504 1502 1501
1472 1473 1476 1477 1478 1488 1500 1500 1491 1481 1466 1460 1465 1467 1463 1464 1467 1470 1471 1471 1473 1475 1475 1476 1478 1479 1480 1479 1479 1480 1481 1482 1483 1483 1484 1486 1486 1487 1488 1489 1490 1490 1491 1492 1493 1494 1495 1495 1497 1498 1499 1501 1502 1503 1504 1505 1506 1507 1507 1508 1509 1509 1510 1511 1511 1512 1512 1512 1513 1513 1513 1513 1513 1513 1512 1512 1511 1509 1508 1506 1505 1503 1502 1500 1498 1497
1469 1472 1475 1479 1484 1492 1498 1492 1477 1465 1462 1468 1472 1468 1465 1468 1469 1472 1473 1471 1470 1472 1474 1476 1477 1476 1475 1476 1477 1479 1480 1480 1481 1480 1481 1483 1484 1485 1486 1486 1487 1488 1489 1490 1491 1492 1493 1494 1496 1497 1498 1499 1500 1501 1502 1503 1503 1504 1505 1505 1506 1507 1508 1508 1509 1509 1509 1510 1510 1510 1511 1510 1510 1510 1509 1508 1507 1505 1504 1503 1501 1500 1498 1496 1495 1493
1466 1468 1470 1474 1476 1479 1485 1483 1471 1464 1464 1465 1465 1464 1462 1463 1464 1468 1469 1466 1464 1467 1471 1474 1475 1472 1472 1473 1475 1478 1479 1480 1480 1478 1479 1481 1482 1482 1484 1484 1486 1487 1488 1489 1490 1491 1492 1493 1494 1495 1496 1497 1498 1499 1499 1500 1501 1501 1502 1503 1504 1505 1505 1505 1506 1506 1506 1507 1507 1507 1508 1507 1507 1506 1505 1504 1503 1502 1500 1499 1498 1496 1495 1493 1491 1490
1464 1465 1465 1467 1467 1469 1475 1477 1474 1471 1461 1451 1453 1457 1456 1457 1460 1462 1465 1464 1461 1462 1466 1468 1469 1468 1469 1472 1475 1476 1479 1481 1480 1476 1476 1479 1480 1480 1482 1483 1484 1485 1486 1487 1488 1489 1490 1491 1492 1493 1494 1494 1495 1496 1497 1498 1498 1499 1500 1501 1501 1502 1502 1503 1503 1503 1504 1504 1504 1505 1504 1504 1504 1503 1502 1501 1500 1498 1497 1495 1494 1493 1491 1489 1487 1486
1466 1466 1466 1467 1467 1469 1470 1468 1465 1462 1453 1446 1451 1456 1457 1459 1459 1461 1469 1468 1459 1458 1462 1463 1464 1466 1468 1470 1473 1476 1480 1482 1478 1474 1474 1477 1478 1478 1480 1481 1482 1483 1484 1485 1486 1487 1488 1489 1490 1490 1491 1492 1493 1493 1494 1495 1496 1497 1497 1498 1499 1499 1499 1500 1500 1500 1501 1501 1501 1501 1501 1501 1500 1499 1498 1497 1496 1494 1493 1492 1491 1489 1487 1485 1483 1481
1467 1466 1467 1468 1465 1465 1466 1465 1460 1455 1450 1451 1455 1457 1458 1459 1458 1465 1473 1467 1456 1457 1460 1460 1462 1465 1465 1469 1473 1475 1477 1476 1474 1473 1474 1475 1476 1477 1478 1479 1480 1481 1482 1483 1484 1484 1485 1486 1487 1488 1488 1489 1490 1491 1492 1493 1493 1494 1494 1495 1495 1496 1496 1497 1497 1497 1497 1498 1498 1498 1497 1497 1496 1495 1494 1493 1492 1491 1489 1488 1487 1485 1483 1481 1480 1477
1468 1467 1467 1465 1463 1461 1462 1461 1459 1454 1451 1454 1458 1457 1457 1460 1463 1466 1465 1456 1453 1457 1458 1458 1461 1463 1464 1468 1470 1471 1471 1470 1470 1471 1472 1473 1474 1475 1476 1478 1478 1479 1480 1480 1481 1482 1483 1483 1484 1485 1486 1486 1487 1488 1489 1489 1490 1491 1491 1492 1492 1492 1493 1493 1494 1494 1494 1494 1494 1494 1494 1493 1493 1492 1491 1489 1488 1486 1485 1484 1483 1481 1479 1477 1475 1473
1464 1466 1466 1465 1463 1463 1461 1461 1461 1454 1447 1449 1456 1457 1457 1460 1462 1458 1452 1450 1453 1455 1455 1458 1460 1461 1463 1465 1466 1466 1467 1467 1468 1470 1470 1472 1473 1473 1475 1475 1476 1476 1477 1477 1478 1479 1480 1481 1481 1482 1483 1483 1484 1485 1485 1486 1487 1487 1488 1488 1488 1489 1490 1490 1490 1490 1491 1491 1491 1491 1490 1489 1488 1488 1487 1485 1484 1482 1481 1480 1479 1477 1475 1473 1471 1469
1452 1458 1463 1461 1459 1463 1466 1465 1462 1453 1442 1444 1453 1457 1457 1455 1451 1448 1448 1451 1452 1452 1454 1457 1458 1460 1462 1462 1462 1463 1464 1465 1467 1467 1468 1470 1470 1471 1472 1472 1473 1474 1474 1475 1475 1476 1477 1478 1478 1479 1480 1480 1481 1481 1482 1483 1483 1484 1484 1485 1485 1486 1486 1486 1487 1487 1487 1487 1487 1486 1486 1485 1484 1483 1482 1481 1480 1478 1477 1476 1475 1473 1471 1469 1467 1465
1445 1451 1456 1452 1451 1459 1462 1456 1448 1442 1438 1441 1445 1447 1448 1447 1445 1445 1448 1450 1451 1452 1454 1455 1456 1458 1459 1459 1460 1461 1462 1463 1464 1465 1466 1467 1468 1468 1469 1469 1470 1471 1471 1472 1473 1473 1474 1474 1475 1476 1476 1477 1477 1478 1478 1479 1480 1480 1481 1481 1482 1482 1482 1482 1483 1483 1483 1483 1483 1482 1482 1481 1480 1479 1478 1477 1476 1475 1474 1472 1471 1469 1467 1465 1463 1461
1439 1441 1443 1441 1441 1445 1445 1440 1437 1437 1439 1440 1440 1441 1442 1443 1444 1445 1447 1448 1449 1451 1452 1453 1454 1455 1456 1457 1458 1459 1460 1461 1462 1463 1464 1464 1464 1465 1466 1466 1467 1468 1468 1469 1469 1469 1470 1471 1471 1472 1472 1473 1474 1474 1474 1475 1476 1476 1477 1478 1478 1478 1478 1478 1479 1479 1479 1479 1479 1478 1478 1477 1476 1475 1474 1473 1472 1471 1470 1468 1467 1465 1463 1462 1460 1458
1437 1439 1439 1438 1438 1437 1435 1435 1436 1437 1438 1438 1439 1441 1442 1442 1443 1444 1445 1446 1448 1448 1449 1451 1451 1452 1453 1454 1455 1456 1458 1458 1459 1460 1460 1461 1461 1462 1462 1463 1464 1464 1465 1465 1465 1466 1467 1467 1467 1468 1468 1469 1470 1470 1471 1472 1472 1473 1474 1474 1474 1474 1474 1475 1475 1475 1475 1475 1475 1474 1473 1473 1472 1471 1470 1469 1468 1467 1466 1464 1463 1461 1459 1458 1456 1454
1437 1438 1439 1438 1437 1435 1433 1434 1435 1436 1436 1438 1439 1439 1440 1441 1442 1443 1443 1444 1445 1446 1447 1448 1449 1450 1451 1451 1452 1453 1454 1455 1456 1456 1457 1458 1458 1458 1459 1460 1460 1460 1461 1461 1462 1462 1463 1463 1463 1463 1464 1464 1465 1466 1467 1467 1468 1469 1470 1470 1470 1470 1470 1471 1471 1471 1471 1471 1470 1470 1469 1468 1468 1467 1466 1465 1464 1463 1462 1460 1459 1457 1455 1454 1452 1450
1433 1436 1437 1437 1435 1434 1433 1434 1435 1436 1436 1436 1437 1438 1439 1439 1440 1440 1441 1442 1443 1444 1445 1446 1447 1448 1448 1449 1450 1450 1451 1452 1453 1453 1453 1454 1454 1454 1455 1455 1456 1456 1457 1457 1458 1458 1458 1458 1459 1459 1459 1460 1461 1462 1463 1464 1465 1466 1465 1465 1466 1466 1466 1467 1467 1467 1467 1467 1466 1466 1465 1464 1464 1463 1462 1461 1460 1459 1458 1456 1455 1453 1452 1451 1449 1446
1431 1432 1433 1433 1433 1433 1434 1436 1437 1437 1437 1437 1436 1437 1436 1436 1437 1438 1439 1440 1441 1442 1443 1443 1445 1445 1446 1447 1447 1447 1448 1448 1449 1449 1450 1450 1450 1450 1450 1451 1451 1452 1452 1453 1454 1454 1454 1454 1454 1454 1455 1455 1456 1457 1458 1460 1461 1461 1461 1461 1461 1461 1462 1462 1462 1462 1462 1462 1462 1462 1461 1460 1459 1458 1457 1457 1456 1455 1453 1452 1451 1450 1448 1447 1445 1443
1430 1429 1428 1431 1431 1429 1430 1432 1434 1434 1434 1433 1433 1433 1433 1434 1435 1436 1437 1438 1439 1439 1440 1441 1442 1443 1443 1444 1444 1444 1444 1444 1445 1446 1446 1445 1445 1445 1446 1446 1447 1447 1448 1448 1449 1449 1449 1449 1449 1450 1450 1451 1452 1453 1454 1455 1456 1456 1456 1456 1457 1457 1457 1457 1457 1458 1458 1458 1457 1457 1456 1455 1454 1454 1453 1452 1451 1450 1449 1448 1448 1446 1444 1442 1441 1439
1423 1421 1421 1424 1424 1423 1425 1427 1429 1429 1428 1428 1429 1430 1431 1432 1433 1434 1435 1435 1436 1437 1438 1439 1439 1440 1440 1440 1441 1441 1441 1441 1441 1442 1441 1441 1441 1441 1441 1442 1442 1442 1443 1443 1443 1443 1444 1444 1444 1445 1445 1445 1447 1448 1449 1450 1450 1451 1451 1452 1452 1452 1453 1452 1452 1453 1453 1453 1453 1452 1451 1451 1450 1449 1448 1448 1446 1445 1444 1444 1444 1443 1441 1439 1436 1435